Погода в Кэлэраши

Румыния     46°29′07″N   23°51′20″E
темп.,
°C
ветер,
м/с
пор.,
м/с
влажн.,
%
обл.,
%
осадки,
мм/ч
давл.,
гПа
погр.,
м
16 мая, пн
пн1600:00+14з117946 0.0 101912
03:00+12зсз11810 0.0 101910
06:00+11зюз117957 0.0 101910
09:00+16ю2272100 0.0 1019246
12:00+21ююв2250100 0.1 10181309
15:00+22с335322 0.2 10181107
18:00+21ссз445844 0.0 10171081
21:00+15ссз2281100 0.3 101818
17 мая, вт
вт1700:00+13з11855 0.0 101811
03:00+12зюз118623 0.0 101810
06:00+11зюз118671 0.0 101810
09:00+16ююв2272100 0.0 1017290
12:00+20з3361100 0.6 1016848
15:00+14ссв2395100 5.1 1016222
18:00+13ссв2498100 5.8 1014250
21:00+13ссз2397100 17.6 1015170
18 мая, ср
ср1800:00+12ссз2595100 0.3 1015178
03:00+11с3795100 3.6 1016431
06:00+11ссз1293100 0.8 101881
09:00+10ссз597593 1.0 1022454
12:00+13ссз786375 0.0 10241283
15:00+15с45444 0.0 10241832
18:00+15ссз45452 0.0 10251634
21:00+10зсз33620 0.0 102741
19 мая, чт
чт1900:00+8з22570 0.0 102818
03:00+6зюз11580 0.0 103010
06:00+5зюз11590 0.0 103110
09:00+11юв11555 0.0 1031268
12:00+17юв11470 0.0 1030876
15:00+20ссв12425 0.0 10281347
18:00+19с22455 0.0 10271122
21:00+13с116987 0.0 102710
20 мая, пт
пт2000:00+10з117818 0.0 102810
03:00+9з118243 0.0 102710
06:00+8з1182100 0.0 102710
09:00+14ююв226852 0.0 1026259
12:00+19вюв115493 0.0 1025663
15:00+22в22469 0.0 10221042
18:00+22с335313 0.0 10211028
21:00+16сз11705 0.0 102011